Vertical_Velocity
-5 -4 -4 -3 -6 -3 0 -1 1 0 -0 -1 -2 -1 -0 -2 -1 -3 -4 -3 -4 -1 -2 -1 -2 -1 -0 -1 -2 -3 0 -0 0 -1 -2 -1 -1 -1 -1 -1 -0 0 2
0 -1 -2 -3 -5 0 1 -0 -1 -2 -1 -1 -1 -1 -1 -2 0 1 -0 -1 -1 1 0 -0 -1 -2 -1 0 -2 -2 -0 0 -0 1 -2 -2 -0 -1 -1 -1 0 0 -0
-2 -4 -3 -4 -0 -1 -1 -2 0 -1 -1 -1 -1 -1 -2 -1 -2 -3 -2 -2 -2 2 -1 -1 -1 -1 -1 -1 0 -0 0 2 0 1 -0 -2 -1 -0 -1 -1 -0 2 -0
-3 -3 -1 -1 -2 2 1 -1 -2 -2 -2 -2 -2 -0 0 -1 -1 -2 0 -1 -1 1 -1 -1 -1 -1 -0 0 -1 -1 -1 -1 1 0 0 1 -1 -1 -1 -0 -1 3 -0
-2 -1 -3 -2 -1 1 -0 -1 -2 -1 1 -1 -0 -1 -1 -3 -2 -1 1 -3 -2 -1 -0 -1 -1 -2 -1 -0 1 0 -1 -0 1 0 -1 0 0 0 -1 -1 -1 2 0
-1 -2 -2 -0 0 -0 1 0 1 -0 -2 -1 -2 -2 -1 -1 -2 -1 -0 -1 -0 -1 -0 -0 -1 -2 -1 0 -0 -1 -2 -2 -1 1 -0 -1 -1 1 -0 -1 -1 2 -0
-3 -1 2 1 -1 -1 1 -1 -1 -1 -1 -2 1 -3 -1 -1 -1 -1 -1 -1 -1 0 -1 -2 -2 -2 -1 -1 -1 -0 0 -1 -2 -1 -1 -2 -2 0 0 0 -0 -2 2
1 1 -1 -2 0 2 1 2 3 -0 -1 0 0 1 1 0 -1 -1 -1 -1 0 1 -0 0 -0 -1 -2 -2 -2 -1 -2 -2 -1 0 1 1 -1 -0 -1 -1 -1 -1 -3
3 3 0 2 -0 0 -0 1 -1 -1 -1 -1 -1 0 1 -0 -1 -1 -2 -1 -1 -1 -0 -2 -2 -2 -1 -0 0 -1 -2 -2 -1 -1 -2 -1 0 0 2 2 2 1 0
1 -0 2 3 2 1 -2 1 0 -1 -2 0 -1 -3 -3 -3 -2 -3 -2 -3 -2 -1 -1 -1 -2 -1 0 1 0 1 3 0 -0 -2 -3 -3 1 -0 -3 -2 -0 1 3
3 3 0 1 -2 -0 -3 0 -0 0 -1 -1 1 2 1 2 -0 -2 -1 -2 -2 -2 -1 -1 -2 -3 -3 -2 -3 -2 1 0 1 3 2 2 4 -1 -1 0 -0 -1 1
3 2 2 -2 -1 -0 0 0 -2 1 -4 -4 -0 0 0 -0 -2 -2 -0 0 -1 -1 -2 -2 -2 0 -0 -1 -2 -3 -0 -1 -2 -2 0 -4 3 -1 2 1 -0 -1 0
4 -3 -5 -4 -2 -1 -0 -1 -1 -1 -3 -4 0 1 -2 -2 -3 0 2 1 2 0 1 2 2 2 1 -1 1 1 -2 -3 -2 -2 -1 -1 0 -2 -1 -1 -0 0 -0
-0 -1 -0 -0 1 -0 -1 -1 0 -1 -1 -1 1 4 -4 -4 -2 1 -2 -1 1 2 -1 0 0 -1 -1 -2 -0 1 -0 0 0 1 1 1 1 1 -1 0 -1 -1 -1
-4 -1 1 0 2 2 1 -1 -1 -2 -1 -1 -3 -2 -2 -3 -1 0 -2 -1 2 -1 -3 2 -2 -1 -0 -5 -1 -2 -2 -1 -1 -2 -2 0 2 3 2 2 -2 2 1
0 1 2 2 2 2 1 2 3 1 0 -1 -1 -2 -3 -2 -3 -3 -2 0 -2 -3 -0 0 0 -0 -0 -2 -2 -0 -0 -1 2 0 -0 1 -0 -1 -1 -1 0 -0 -0
-0 -0 -1 -2 -2 0 1 -0 -0 -0 -1 -0 -1 -1 -1 -0 -4 -2 0 0 -1 -4 -0 3 -3 1 3 -5 -3 -4 -1 0 -2 -0 -0 -1 -0 0 0 -2 -0 -1 -1
-0 -0 2 -0 0 0 -1 -0 2 2 1 -1 -2 -3 -1 0 1 -0 -2 -2 -2 -2 -0 -1 -2 -3 5 -2 -1 -4 -3 0 1 0 -4 -3 -4 -7 -3 -2 -0 -2 -1
2 1 1 3 2 3 1 2 1 2 2 2 1 -1 -2 -1 -0 1 -0 -1 0 -2 -4 -2 -2 -2 3 -2 -2 -6 -4 -2 3 1 -1 -1 0 -5 -5 -0 2 1 4
2 -1 -2 -1 -1 -1 -0 -0 -2 -1 -0 -2 1 0 -2 -3 -1 -0 -0 -2 -5 -4 -4 -2 -6 -2 -1 2 -7 -2 -5 -6 -1 -1 4 0 2 -0 -2 0 -0 5 7
-2 -3 -0 2 1 1 3 2 3 0 -0 2 3 3 0 0 -2 1 3 3 -0 -3 -1 -3 2 2 -2 2 1 -3 -8 2 -3 1 5 2 -2 2 -0 -4 -2 2 1
-2 -1 -1 -5 -7 -3 1 -1 -2 -4 -4 -2 -2 -1 1 1 2 1 4 1 -1 -1 1 -2 -0 -3 0 -2 8 -5 2 2 -2 3 1 3 -1 0 2 -1 -1 -3 -3
1 -2 -1 3 -4 -4 -3 4 1 -4 -0 1 2 -1 2 2 3 -1 -0 -2 -0 -1 1 0 -2 4 4 0 6 6 4 4 -1 4 2 2 2 4 3 3 1 3 0
-2 -0 -1 -1 5 -3 2 -7 -4 -5 -5 -4 -1 1 -1 -2 -3 -5 -5 -6 -2 -3 -4 -2 -2 0 3 5 9 3 4 5 3 -1 -1 0 8 8 9 6 4 1 -2
0 -2 -2 -2 2 -3 1 2 -1 -8 -5 -5 2 5 2 3 0 1 -1 2 6 -1 -3 2 -3 -0 2 4 1 2 0 4 4 0 -6 -4 -3 -0 2 1 4 5 6
1 -1 -1 -5 -2 -1 -2 3 -2 -5 -4 0 4 0 -6 1 4 3 1 9 -4 3 3 -2 -5 5 -6 4 6 0 -1 2 4 -4 -1 6 3 5 1 -2 -2 1 7
Height
5814 5813 5812 5810 5807 5804 5802 5799 5796 5794 5792 5788 5785 5781 5777 5774 5769 5765 5761 5755 5752 5748 5745 5743 5740 5737 5736 5734 5732 5731 5729 5726 5723 5720 5718 5716 5713 5710 5706 5702 5697 5694 5689
5806 5804 5803 5801 5797 5795 5794 5792 5790 5787 5784 5781 5777 5773 5770 5767 5763 5759 5756 5750 5747 5743 5739 5737 5734 5732 5730 5728 5727 5725 5723 5721 5718 5716 5714 5712 5710 5706 5703 5700 5697 5694 5691
5797 5796 5794 5791 5788 5787 5786 5784 5782 5779 5776 5773 5770 5766 5763 5759 5755 5751 5748 5743 5740 5736 5733 5731 5728 5726 5724 5723 5721 5719 5718 5716 5714 5712 5710 5707 5706 5703 5701 5698 5696 5694 5692
5788 5787 5784 5783 5781 5780 5778 5776 5774 5771 5769 5766 5762 5759 5756 5752 5749 5745 5742 5739 5735 5731 5729 5726 5724 5722 5720 5718 5716 5714 5712 5711 5710 5708 5706 5704 5702 5700 5698 5696 5694 5693 5691
5779 5778 5777 5775 5773 5773 5770 5768 5766 5763 5760 5758 5756 5753 5749 5746 5743 5739 5735 5732 5729 5726 5723 5721 5719 5717 5715 5713 5711 5709 5707 5706 5705 5703 5701 5700 5698 5696 5695 5693 5692 5692 5691
5771 5770 5769 5767 5766 5765 5763 5761 5758 5756 5754 5752 5750 5746 5743 5739 5735 5732 5729 5726 5724 5722 5719 5716 5714 5712 5709 5707 5706 5704 5702 5701 5700 5699 5697 5696 5694 5692 5691 5689 5689 5689 5688
5764 5763 5761 5760 5760 5758 5755 5753 5751 5749 5747 5745 5742 5739 5735 5732 5729 5726 5723 5720 5718 5715 5712 5710 5708 5706 5704 5702 5700 5698 5697 5696 5694 5693 5692 5692 5690 5688 5687 5685 5685 5684 5684
5755 5755 5755 5754 5751 5749 5748 5745 5743 5741 5739 5736 5733 5730 5727 5724 5722 5719 5716 5713 5711 5708 5706 5704 5702 5700 5698 5696 5694 5693 5691 5689 5688 5688 5687 5686 5685 5684 5682 5681 5681 5680 5679
5748 5747 5746 5744 5742 5741 5739 5736 5734 5732 5730 5727 5724 5721 5718 5716 5713 5710 5708 5705 5703 5701 5699 5696 5694 5692 5689 5687 5685 5684 5683 5682 5681 5680 5680 5679 5678 5677 5676 5676 5675 5674 5673
5740 5739 5737 5736 5734 5732 5730 5728 5725 5723 5720 5717 5714 5712 5710 5708 5706 5703 5700 5697 5695 5693 5690 5687 5685 5683 5681 5679 5676 5674 5673 5672 5671 5671 5671 5671 5671 5670 5670 5669 5668 5667 5666
5732 5730 5727 5724 5723 5723 5720 5718 5715 5712 5709 5706 5704 5702 5699 5697 5694 5691 5689 5686 5684 5683 5680 5678 5675 5673 5671 5669 5666 5665 5663 5662 5661 5660 5659 5658 5658 5659 5659 5659 5659 5659 5659
5722 5721 5719 5716 5713 5711 5708 5705 5701 5699 5696 5693 5691 5690 5688 5684 5681 5677 5674 5672 5670 5668 5666 5664 5662 5660 5658 5655 5654 5652 5651 5650 5649 5648 5648 5647 5647 5646 5645 5646 5647 5646 5647
5712 5710 5708 5705 5703 5700 5697 5694 5691 5688 5684 5680 5678 5675 5673 5669 5665 5662 5661 5659 5657 5654 5653 5650 5647 5645 5643 5641 5639 5638 5637 5636 5635 5633 5632 5631 5631 5631 5631 5630 5630 5631 5632
5701 5698 5694 5691 5688 5686 5683 5680 5677 5673 5669 5666 5664 5661 5658 5653 5650 5648 5645 5642 5639 5638 5636 5634 5632 5629 5626 5623 5621 5620 5619 5618 5617 5616 5615 5613 5612 5611 5611 5612 5612 5612 5613
5684 5681 5679 5677 5674 5671 5668 5665 5662 5658 5654 5651 5648 5645 5641 5638 5634 5631 5627 5625 5622 5620 5617 5614 5612 5610 5608 5606 5604 5602 5601 5600 5598 5597 5596 5595 5594 5593 5591 5591 5590 5591 5591
5671 5668 5664 5660 5657 5653 5650 5647 5644 5641 5638 5634 5630 5626 5623 5619 5615 5612 5609 5605 5601 5598 5596 5594 5591 5589 5587 5586 5585 5583 5581 5579 5577 5576 5574 5573 5573 5573 5572 5571 5569 5569 5569
5656 5653 5649 5645 5641 5638 5634 5631 5627 5623 5620 5616 5612 5608 5604 5600 5595 5592 5589 5585 5582 5578 5575 5573 5569 5567 5565 5563 5563 5562 5562 5559 5557 5555 5554 5553 5551 5551 5551 5551 5550 5548 5548
5639 5636 5632 5628 5624 5621 5616 5613 5609 5606 5601 5596 5591 5587 5583 5579 5575 5572 5569 5565 5562 5559 5556 5553 5548 5546 5543 5539 5538 5536 5537 5537 5535 5534 5532 5532 5530 5529 5529 5530 5528 5527 5526
5620 5617 5613 5609 5605 5602 5597 5593 5589 5584 5580 5576 5572 5568 5564 5560 5556 5552 5549 5545 5542 5539 5535 5531 5527 5523 5521 5516 5513 5511 5511 5510 5510 5508 5507 5506 5505 5501 5503 5505 5503 5502 5499
5600 5596 5592 5588 5584 5580 5576 5572 5568 5565 5562 5558 5554 5549 5545 5541 5536 5532 5527 5522 5517 5514 5510 5506 5502 5500 5498 5493 5489 5486 5485 5486 5486 5483 5482 5479 5478 5476 5475 5477 5477 5477 5473
5581 5576 5572 5568 5563 5559 5555 5551 5546 5542 5538 5534 5530 5526 5521 5517 5511 5506 5501 5497 5492 5488 5485 5482 5478 5474 5471 5469 5464 5459 5457 5458 5457 5459 5458 5455 5453 5453 5451 5451 5452 5453 5451
5560 5555 5551 5547 5542 5539 5533 5527 5522 5518 5514 5509 5504 5499 5494 5488 5482 5478 5474 5469 5465 5462 5458 5454 5453 5450 5445 5440 5439 5432 5430 5430 5431 5434 5434 5433 5430 5430 5430 5429 5428 5428 5429
5540 5535 5531 5525 5518 5514 5508 5503 5497 5492 5489 5484 5479 5473 5467 5460 5455 5451 5446 5442 5437 5431 5428 5424 5423 5420 5416 5413 5411 5407 5405 5405 5405 5408 5409 5409 5409 5408 5409 5408 5406 5406 5406
5517 5513 5508 5503 5498 5491 5486 5478 5473 5467 5465 5461 5455 5448 5442 5437 5431 5424 5418 5413 5409 5402 5396 5394 5391 5389 5390 5388 5383 5380 5381 5380 5381 5382 5383 5386 5388 5388 5387 5385 5383 5383 5384
5496 5490 5484 5480 5475 5469 5464 5455 5447 5441 5439 5436 5431 5426 5420 5415 5408 5401 5394 5387 5382 5374 5370 5368 5363 5361 5362 5363 5358 5356 5356 5358 5359 5357 5359 5363 5363 5364 5364 5363 5362 5363 5363
5474 5468 5463 5457 5453 5446 5442 5435 5426 5418 5414 5411 5407 5400 5393 5387 5379 5372 5370 5365 5356 5353 5346 5342 5337 5337 5335 5338 5335 5333 5332 5334 5334 5333 5338 5340 5339 5340 5341 5341 5341 5342 5342